The Dalles, WA

7:08 PM PDT on June 25, 2017 (GMT -0700)
Columbia Gorge Regional-The Dalles

Weather History for KDLS - December, 2013

Change the Weather History Date:

Wednesday, December 11, 2013

  Actual Average Record
Temperature  
Mean Temperature 25 °F -  
Max Temperature 32 °F 42 °F 58 °F (1955)
Min Temperature 18 °F 29 °F -8 °F (1972)
Degree Days  
Heating Degree Days 40    
Moisture  
Dew Point 19 °F    
Average Humidity 81    
Maximum Humidity 92    
Minimum Humidity 64    
Precipitation  
Precipitation 0.00 in - - ()
Sea Level Pressure  
Sea Level Pressure 30.46 in    
Wind  
Wind Speed 3 mph (ESE)    
Max Wind Speed 6 mph    
Max Gust Speed -    
Visibility 9 miles    
Events      
Averages and records for this station are not official NWS values.
T = Trace of Precipitation, MM = Missing Value Source: NWS Daily Summary

Daily Weather History Graph

Daily Weather History Graph

Search for Another Location

Airport or City:

Trip Planner

Search our weather history database for the weather conditions in past years. The results will help you decide how hot, cold, wet, or windy it might be!

Date:

Astronomy

Dec. 11, 2013 Rise Set
Actual Time 7:35 AM PST 4:20 PM PST
Civil Twilight 7:01 AM PST 4:54 PM PST
Nautical Twilight 6:23 AM PST 5:32 PM PST
Astronomical Twilight 5:47 AM PST 6:08 PM PST
Moon 1:09 PM PST (12/11) 1:48 AM PST (12/11)
Length of Visible Light 9h 53m
Length of Day
8h 45m
Waxing Gibbous, 72% of the Moon is Illuminated
Dec 11
Waxing Gibbous
Dec 17
Full
Dec 25
Last Quarter
Jan 1
New
Jan 7
First Quarter

Hourly Weather History & Observations

Time (PST) Temp. Windchill Dew Point Humidity Pressure Visibility Wind Dir Wind Speed Gust Speed Precip Events Conditions
12:53 AM 21.9 °F 17.2 °F 19.0 °F 89% 30.49 in 10.0 mi East 3.5 mph - N/A   Clear
1:53 AM 19.9 °F - 16.0 °F 85% 30.50 in 10.0 mi Calm Calm - N/A   Clear
2:53 AM 21.0 °F 16.2 °F 17.1 °F 85% 30.50 in 10.0 mi ESE 3.5 mph - N/A   Clear
3:53 AM 21.0 °F 16.2 °F 18.0 °F 88% 30.50 in 10.0 mi East 3.5 mph - N/A   Clear
4:53 AM 19.9 °F 14.9 °F 17.1 °F 89% 30.49 in 10.0 mi East 3.5 mph - N/A   Clear
5:53 AM 19.0 °F 11.1 °F 15.1 °F 85% 30.50 in 10.0 mi ESE 5.8 mph - N/A   Clear
6:53 AM 19.0 °F 13.9 °F 17.1 °F 92% 30.51 in 7.0 mi ESE 3.5 mph - N/A   Clear
7:53 AM 18.0 °F 11.1 °F 15.1 °F 88% 30.51 in 9.0 mi ESE 4.6 mph - N/A   Clear
8:53 AM 21.0 °F - 18.0 °F 88% 30.52 in 7.0 mi Calm Calm - N/A   Clear
9:53 AM 25.0 °F - 21.0 °F 85% 30.53 in 8.0 mi Calm Calm - N/A   Clear
10:53 AM 27.0 °F - 21.9 °F 81% 30.52 in 10.0 mi Calm Calm - N/A   Clear
11:53 AM 28.9 °F - 21.0 °F 72% 30.50 in 10.0 mi Calm Calm - N/A   Clear
12:53 PM 30.9 °F 26.2 °F 19.9 °F 64% 30.48 in 10.0 mi SE 4.6 mph - N/A   Clear
1:53 PM 30.9 °F - 19.9 °F 64% 30.45 in 10.0 mi Calm Calm - N/A   Clear
2:53 PM 32.0 °F - 21.0 °F 64% 30.43 in 10.0 mi Calm Calm - N/A   Clear
3:53 PM 30.9 °F 27.5 °F 21.0 °F 67% 30.43 in 10.0 mi WNW 3.5 mph - N/A   Clear
4:53 PM 28.0 °F 22.8 °F 19.9 °F 72% 30.43 in 10.0 mi WSW 4.6 mph - N/A   Clear
5:53 PM 27.0 °F - 19.9 °F 75% 30.42 in 10.0 mi Calm Calm - N/A   Clear
6:53 PM 23.0 °F 15.8 °F 19.9 °F 88% 30.41 in 9.0 mi ESE 5.8 mph - N/A   Clear
7:53 PM 25.0 °F - 19.9 °F 81% 30.41 in 9.0 mi Calm Calm - N/A   Clear
8:53 PM 24.1 °F - 19.0 °F 81% 30.41 in 9.0 mi Calm Calm - N/A   Clear
9:53 PM 21.0 °F - 18.0 °F 88% 30.41 in 8.0 mi Calm Calm - N/A   Clear
10:53 PM 19.9 °F 13.4 °F 17.1 °F 89% 30.40 in 9.0 mi ESE 4.6 mph - N/A   Clear
11:53 PM 19.9 °F 12.1 °F 16.0 °F 85% 30.40 in 9.0 mi ESE 5.8 mph - N/A   Clear